�N����,����,�~����,�C��,���x,�C��,����,���ϕ���,�ő�u�ԕ���,�ő厞����,���˗�,�I�_���x,�n�����x,�ő啗���N��,DTYPE
"23/05/07","00:10",0.0,19.5,94.8,1002.6,323.5,0.8,1.2,333.4,0.00,18.7,18.1,"00:05:20",1
"23/05/07","00:20",0.0,19.6,94.9,1003.1,330.5,1.2,1.8,314.6,0.00,18.8,18.2,"00:13:12",1
"23/05/07","00:30",0.0,19.5,95.0,1002.9,4.1,0.8,2.1,356.4,0.00,18.7,18.1,"00:26:48",1
"23/05/07","00:40",0.0,19.5,95.2,1002.6,318.4,0.7,1.4,247.4,0.00,18.8,18.2,"00:31:28",1
"23/05/07","00:50",0.0,19.5,95.3,1002.6,295.7,1.1,2.1,322.4,0.00,18.8,18.2,"00:42:16",1
"23/05/07","01:00",0.0,19.5,95.3,1002.9,293.2,0.8,1.4,251.6,0.00,18.8,18.0,"00:51:28",1
"23/05/07","01:10",0.2,19.5,95.4,1002.4,326.6,0.3,1.0,333.7,0.00,18.8,18.2,"01:01:52",1
"23/05/07","01:20",0.0,19.5,95.5,1002.9,109.4,0.3,1.8,109.6,0.00,18.8,18.1,"01:11:44",1
"23/05/07","01:30",0.0,19.6,95.6,1002.6,323.5,1.1,1.8,317.0,0.00,18.9,18.2,"01:26:56",1
"23/05/07","01:40",0.0,19.5,95.6,1002.4,339.4,1.0,1.7,342.4,0.00,18.8,18.4,"01:31:36",1
"23/05/07","01:50",0.0,19.5,95.8,1002.2,10.3,0.6,1.8,109.3,0.00,18.9,18.0,"01:49:44",1
"23/05/07","02:00",0.0,19.4,95.8,1002.2,118.2,1.2,2.1,105.1,0.00,18.8,18.0,"01:56:32",1
"23/05/07","02:10",0.0,19.4,95.9,1001.7,157.7,0.5,1.2,158.5,0.00,18.8,18.2,"02:00:40",1
"23/05/07","02:20",0.0,19.4,96.0,1002.2,78.9,0.5,1.1,100.9,0.00,18.8,18.1,"02:13:20",1
"23/05/07","02:30",0.0,19.4,96.0,1002.2,80.5,0.6,1.6,107.6,0.00,18.8,18.2,"02:26:32",1
"23/05/07","02:40",0.0,19.4,96.1,1001.5,99.6,0.5,1.6,68.6,0.00,18.8,18.1,"02:32:00",1
"23/05/07","02:50",0.0,19.4,96.1,1001.9,335.8,0.5,1.4,9.4,0.00,18.8,18.0,"02:45:28",1
"23/05/07","03:00",0.0,19.4,96.2,1001.7,168.7,0.3,1.0,36.0,0.00,18.8,18.1,"02:58:56",1
"23/05/07","03:10",0.0,19.4,96.3,1001.5,333.7,0.8,1.3,346.8,0.00,18.8,18.0,"03:04:24",1
"23/05/07","03:20",0.0,19.4,96.3,1001.5,310.5,0.6,1.1,327.3,0.00,18.8,17.9,"03:15:28",1
"23/05/07","03:30",0.0,19.4,96.4,1001.2,21.9,0.3,0.8,308.5,0.00,18.9,18.0,"03:28:26",1
"23/05/07","03:40",0.0,19.4,96.4,1001.0,303.2,0.3,1.2,342.0,0.00,18.9,18.1,"03:34:56",1
"23/05/07","03:50",0.0,19.5,96.5,1001.2,56.3,0.3,1.1,33.7,0.00,19.0,18.1,"03:47:44",1
"23/05/07","04:00",0.0,19.4,96.5,1001.0,174.5,0.7,1.3,136.3,0.00,18.9,18.1,"03:53:28",1
"23/05/07","04:10",0.0,19.5,96.5,1001.2,150.7,0.5,1.7,130.9,0.00,19.0,18.1,"04:01:20",1
"23/05/07","04:20",0.0,19.4,96.6,1001.2,220.9,0.6,1.7,204.1,0.00,18.9,18.2,"04:17:56",1
"23/05/07","04:30",0.0,19.4,96.6,1001.0,171.5,0.6,1.1,209.2,0.00,18.9,18.1,"04:24:56",1
"23/05/07","04:40",0.0,19.4,96.6,1001.2,289.1,0.1,0.5,303.3,0.00,18.9,18.2,"04:36:38",1
"23/05/07","04:50",0.0,19.4,96.7,1001.0,171.9,0.2,0.8,146.2,0.00,18.9,18.1,"04:44:08",1
"23/05/07","05:00",0.0,19.4,96.7,1001.2,122.7,0.2,0.8,95.2,0.00,18.9,18.0,"04:53:12",1
"23/05/07","05:10",0.0,19.4,96.8,1001.0,184.9,0.2,0.8,145.3,0.00,18.9,18.2,"05:08:00",1
"23/05/07","05:20",0.0,19.4,96.8,1001.2,89.3,0.2,0.6,127.4,0.00,18.9,18.3,"05:14:48",1
"23/05/07","05:30",0.0,19.4,96.8,1001.5,53.4,0.3,0.9,46.7,0.00,18.9,18.0,"05:25:28",1
"23/05/07","05:40",0.0,19.4,96.8,1001.2,144.9,0.2,0.9,159.7,0.00,18.9,18.1,"05:34:08",1
"23/05/07","05:50",0.0,19.3,96.9,1001.0,209.4,0.2,0.6,164.8,0.00,18.8,18.1,"05:43:12",1
"23/05/07","06:00",0.0,19.4,96.9,1001.0,264.5,0.6,0.6,262.0,0.00,18.9,18.0,"05:50:40",1
"23/05/07","06:10",0.0,19.3,97.0,1001.0,271.7,0.1,0.3,268.2,0.00,18.9,18.0,"06:00:08",1
"23/05/07","06:20",0.0,19.3,97.0,1001.2,235.4,0.3,0.8,175.8,0.00,18.9,18.1,"06:13:20",1
"23/05/07","06:30",0.0,19.3,97.0,1001.2,233.8,0.2,0.8,254.6,0.00,18.9,18.1,"06:23:04",1
"23/05/07","06:40",0.0,19.4,97.1,1001.7,186.1,0.5,1.1,210.2,0.00,19.0,17.9,"06:32:56",1
"23/05/07","06:50",0.0,19.5,97.1,1001.7,333.1,0.3,1.2,343.8,0.00,19.1,18.1,"06:49:12",1
"23/05/07","07:00",0.0,19.4,97.1,1001.5,301.1,0.5,1.3,326.6,0.00,19.0,18.0,"06:50:32",1
"23/05/07","07:10",0.0,19.5,97.2,1001.2,326.0,0.7,1.4,343.4,0.01,19.1,17.8,"07:05:36",1
"23/05/07","07:20",0.0,19.5,97.1,1001.2,254.7,0.3,1.0,293.6,0.00,19.1,17.9,"07:10:24",1
"23/05/07","07:30",0.0,19.6,97.1,1001.2,248.4,0.5,0.8,234.6,0.00,19.2,18.1,"07:22:56",1
"23/05/07","07:40",0.0,19.6,97.2,1001.2,213.2,0.6,1.2,228.2,0.00,19.2,18.1,"07:32:56",1
"23/05/07","07:50",0.0,19.8,97.2,1001.2,330.5,0.5,1.3,344.3,0.00,19.4,18.0,"07:49:44",1
"23/05/07","08:00",0.0,19.8,97.2,1001.2,342.1,1.0,1.6,330.8,0.02,19.4,18.0,"07:56:16",1
"23/05/07","08:10",0.0,19.9,97.2,1001.2,333.1,0.7,1.4,343.3,0.02,19.5,18.0,"08:02:08",1
"23/05/07","08:20",0.0,19.9,97.2,1001.0,260.6,0.5,1.1,242.4,0.01,19.5,18.1,"08:16:48",1
"23/05/07","08:30",0.0,20.0,97.3,1001.2,230.4,0.6,1.0,242.7,0.02,19.6,18.0,"08:27:52",1
"23/05/07","08:40",0.0,20.2,97.3,1001.2,269.1,0.5,1.1,299.6,0.07,19.8,18.0,"08:32:56",1
"23/05/07","08:50",0.0,20.3,97.2,1001.2,258.4,0.7,1.7,244.8,0.05,19.9,18.1,"08:46:16",1
"23/05/07","09:00",0.0,20.2,97.3,1001.2,243.6,1.3,2.7,246.1,0.04,19.8,17.9,"08:59:04",1
"23/05/07","09:10",0.0,19.9,97.2,1001.2,234.3,1.3,2.7,231.2,0.06,19.5,18.0,"09:07:04",1
"23/05/07","09:20",0.0,19.5,97.5,1001.2,278.2,1.3,3.1,236.8,0.05,19.1,18.2,"09:11:04",1
"23/05/07","09:30",0.0,19.1,97.6,1001.5,312.8,1.8,4.0,352.3,0.05,18.8,18.1,"09:25:28",1
"23/05/07","09:40",0.0,19.0,97.6,1001.5,303.6,1.5,3.3,323.7,0.04,18.7,18.1,"09:36:58",1
"23/05/07","09:50",0.0,18.1,97.8,1001.5,296.9,2.2,4.1,275.3,0.06,17.8,18.2,"09:46:20",1
"23/05/07","10:00",0.0,18.4,97.8,1001.7,307.7,1.7,3.2,310.7,0.07,18.1,18.2,"09:59:34",1
"23/05/07","10:10",0.0,18.2,97.9,1001.2,314.7,2.0,4.4,325.7,0.07,17.9,18.1,"10:03:34",1
"23/05/07","10:20",0.0,18.3,97.9,1001.7,315.2,2.2,4.8,340.2,0.09,18.0,18.2,"10:10:18",1
"23/05/07","10:30",0.0,18.3,97.9,1001.9,310.5,1.7,3.2,244.1,0.05,18.0,18.3,"10:29:44",1
"23/05/07","10:40",0.0,18.2,98.0,1001.9,292.3,1.6,2.7,305.7,0.07,17.9,18.3,"10:34:56",1
"23/05/07","10:50",0.0,18.3,97.5,1001.7,312.8,1.5,2.4,336.6,0.10,17.9,18.2,"10:41:04",1
"23/05/07","11:00",0.0,18.3,97.9,1001.7,323.5,1.7,2.8,332.2,0.12,18.0,18.2,"10:52:00",1
"23/05/07","11:10",0.0,18.5,97.8,1001.9,307.5,1.2,3.1,342.6,0.12,18.2,18.1,"11:01:12",1
"23/05/07","11:20",0.0,18.4,97.9,1001.9,301.1,1.3,2.7,341.4,0.08,18.1,18.2,"11:18:24",1
"23/05/07","11:30",0.0,18.5,97.9,1001.9,324.1,1.3,1.9,344.8,0.10,18.2,18.1,"11:20:08",1
"23/05/07","11:40",0.0,18.3,97.9,1001.7,326.7,1.6,2.7,354.6,0.08,18.0,18.3,"11:32:40",1
"23/05/07","11:50",0.0,18.3,97.9,1001.7,304.0,1.3,2.1,337.2,0.08,18.0,18.0,"11:44:08",1
"23/05/07","12:00",0.0,18.2,97.8,1001.2,298.2,1.2,2.1,245.4,0.07,17.9,18.2,"11:59:12",1
"23/05/07","12:10",0.0,18.2,97.9,1001.0,316.1,1.5,2.5,338.8,0.09,17.9,18.2,"12:09:12",1
"23/05/07","12:20",0.0,18.1,97.9,1001.2,325.7,2.0,3.6,330.1,0.15,17.8,18.2,"12:11:12",1
"23/05/07","12:30",0.0,17.9,97.9,1001.0,323.3,2.6,4.8,347.7,0.17,17.6,18.1,"12:26:00",1
"23/05/07","12:40",0.0,17.9,97.9,1000.8,318.5,2.2,3.5,321.3,0.13,17.6,18.2,"12:30:08",1
"23/05/07","12:50",0.0,17.7,97.9,1000.8,316.2,2.6,4.8,304.1,0.11,17.4,18.3,"12:46:48",1
"23/05/07","13:00",0.0,17.7,97.9,1000.5,307.9,2.7,4.8,317.2,0.10,17.4,18.2,"12:54:56",1
"23/05/07","13:10",0.0,17.9,97.9,1001.0,284.4,1.8,3.7,280.6,0.06,17.6,18.3,"13:00:40",1
"23/05/07","13:20",0.2,17.9,97.9,1000.5,283.8,1.5,3.2,243.3,0.06,17.6,18.3,"13:12:48",1
"23/05/07","13:30",0.0,17.9,97.8,1000.8,317.7,1.3,2.0,336.0,0.08,17.6,18.3,"13:20:08",1
"23/05/07","13:40",0.0,17.7,97.8,1000.5,312.7,1.3,2.7,327.0,0.06,17.4,18.2,"13:33:20",1
"23/05/07","13:50",0.0,17.5,97.8,1000.3,323.7,1.8,3.3,331.3,0.03,17.2,18.1,"13:42:40",1
"23/05/07","14:00",0.0,17.5,97.9,1000.3,320.4,2.6,5.0,340.5,0.05,17.2,18.2,"13:52:16",1
"23/05/07","14:10",0.0,17.4,97.9,1000.3,321.6,3.1,5.6,335.2,0.07,17.1,18.2,"14:08:32",1
"23/05/07","14:20",0.0,17.3,97.9,1000.3,323.6,3.1,4.8,321.9,0.06,17.0,18.2,"14:16:58",1
"23/05/07","14:30",0.0,17.3,98.0,999.8,326.0,3.2,4.9,334.2,0.07,17.0,18.1,"14:20:08",1
"23/05/07","14:40",0.0,17.4,97.4,999.6,314.0,2.7,4.4,340.4,0.05,17.0,18.2,"14:38:00",1
"23/05/07","14:50",0.0,17.2,97.9,999.8,311.5,3.2,6.8,326.5,0.04,16.9,18.3,"14:41:04",1
"23/05/07","15:00",0.0,17.3,97.9,999.8,307.2,2.5,4.0,329.6,0.05,17.0,18.3,"14:51:36",1
"23/05/07","15:10",0.0,17.4,97.9,999.3,309.0,2.5,3.6,317.3,0.07,17.1,18.1,"15:04:08",1
"23/05/07","15:20",0.0,17.4,97.9,999.3,312.8,2.1,3.2,310.5,0.05,17.1,18.2,"15:18:56",1
"23/05/07","15:30",0.0,17.2,97.9,999.6,310.9,2.5,4.3,314.0,0.03,16.9,17.9,"15:23:24",1
"23/05/07","15:40",0.0,17.1,97.9,999.3,318.6,2.6,3.3,323.5,0.04,16.8,18.0,"15:33:20",1
"23/05/07","15:50",0.0,16.9,98.0,999.1,322.7,2.6,3.9,322.7,0.04,16.6,18.2,"15:48:58",1
"23/05/07","16:00",0.0,17.1,97.5,998.6,319.7,1.8,2.7,334.2,0.04,16.7,18.1,"15:54:34",1
"23/05/07","16:10",0.0,17.2,97.9,998.4,291.6,1.6,2.8,322.9,0.04,16.9,18.3,"16:02:34",1
"23/05/07","16:20",0.0,17.3,97.9,998.4,279.6,1.2,1.9,255.1,0.04,17.0,18.2,"16:13:44",1
"23/05/07","16:30",0.0,17.5,97.9,997.9,282.5,1.2,1.9,326.2,0.02,17.2,18.2,"16:22:56",1
"23/05/07","16:40",0.0,17.5,97.9,997.9,254.9,1.3,2.1,253.0,0.01,17.2,18.2,"16:30:56",1
"23/05/07","16:50",0.0,17.6,97.9,997.7,262.9,0.8,1.6,243.2,0.01,17.3,17.9,"16:44:40",1
"23/05/07","17:00",0.0,17.8,97.8,997.4,256.1,0.7,1.1,308.2,0.01,17.5,18.0,"16:55:54",1
"23/05/07","17:10",0.0,17.4,97.7,997.2,307.0,1.7,3.6,342.7,0.00,17.1,18.1,"17:08:16",1
"23/05/07","17:20",0.0,17.1,98.0,997.4,312.3,2.6,4.0,315.2,0.00,16.8,18.1,"17:14:50",1
"23/05/07","17:30",0.0,17.0,97.5,997.4,299.3,2.5,3.7,288.3,0.00,16.6,18.1,"17:26:22",1
"23/05/07","17:40",0.0,16.9,98.0,997.2,295.5,2.3,3.7,314.3,0.01,16.6,17.9,"17:30:30",1
"23/05/07","17:50",0.0,16.9,97.6,997.2,302.8,2.6,4.2,302.3,0.01,16.6,18.2,"17:46:12",1
"23/05/07","18:00",0.0,16.8,98.0,997.2,313.4,2.2,2.9,319.0,0.00,16.5,18.0,"17:50:08",1
"23/05/07","18:10",0.0,16.7,97.6,997.7,324.9,2.5,3.5,327.8,0.00,16.4,17.8,"18:04:04",1
"23/05/07","18:20",0.0,16.5,98.0,997.2,324.6,2.2,3.5,327.7,0.00,16.2,18.0,"18:13:20",1
"23/05/07","18:30",0.0,16.6,97.6,997.4,305.6,2.3,4.0,310.6,0.00,16.3,18.0,"18:25:08",1
"23/05/07","18:40",0.0,16.4,98.1,997.4,301.2,2.7,4.2,302.0,0.00,16.1,18.0,"18:37:28",1
"23/05/07","18:50",0.0,16.3,97.6,997.7,297.4,2.8,4.9,329.5,0.00,16.0,18.2,"18:42:42",1
"23/05/07","19:00",0.0,16.1,98.1,997.7,310.0,3.0,4.9,316.2,0.00,15.8,18.0,"18:54:52",1
"23/05/07","19:10",0.0,16.1,97.6,997.4,302.9,2.2,3.2,313.6,0.00,15.8,18.1,"19:05:46",1
"23/05/07","19:20",0.0,15.8,98.1,997.4,316.6,2.3,3.9,319.9,0.00,15.5,17.9,"19:13:00",1
"23/05/07","19:30",0.0,15.8,97.7,997.4,313.3,1.8,3.2,315.8,0.00,15.5,17.7,"19:21:04",1
"23/05/07","19:40",0.0,15.7,98.1,997.0,313.6,1.8,2.9,314.9,0.00,15.4,17.8,"19:32:00",1
"23/05/07","19:50",0.0,15.7,97.6,997.0,304.6,1.7,2.8,340.7,0.00,15.4,18.0,"19:47:44",1
"23/05/07","20:00",0.0,15.6,98.1,997.2,310.6,2.2,3.1,327.6,0.00,15.3,18.0,"19:57:42",1
"23/05/07","20:10",0.0,15.6,97.7,997.2,341.0,1.2,2.1,320.3,0.00,15.3,18.1,"20:00:30",1
"23/05/07","20:20",0.0,15.6,98.2,997.4,335.7,1.2,1.9,345.0,0.00,15.4,17.8,"20:15:42",1
"23/05/07","20:30",0.0,15.6,97.7,997.4,347.7,1.2,1.8,326.5,0.00,15.3,17.9,"20:28:34",1
"23/05/07","20:40",0.0,15.6,98.2,997.4,349.0,1.5,1.9,347.6,0.00,15.4,17.8,"20:30:50",1
"23/05/07","20:50",0.0,15.6,97.7,997.9,335.5,3.0,4.9,344.3,0.00,15.3,17.8,"20:45:42",1
"23/05/07","21:00",0.0,15.5,98.2,997.9,311.1,2.8,4.1,317.3,0.00,15.3,17.7,"20:51:52",1
"23/05/07","21:10",0.0,15.5,97.7,997.9,333.3,2.7,3.5,346.3,0.00,15.2,17.7,"21:08:46",1
"23/05/07","21:20",0.0,15.4,98.2,998.2,357.5,1.8,2.9,343.4,0.00,15.2,17.7,"21:18:28",1
"23/05/07","21:30",0.0,15.4,97.8,998.2,330.0,2.1,2.4,325.1,0.00,15.1,17.7,"21:24:18",1
"23/05/07","21:40",0.0,15.3,98.2,998.2,315.0,2.3,2.4,305.9,0.00,15.1,17.8,"21:36:56",1
"23/05/07","21:50",0.0,15.4,97.8,998.4,317.3,1.8,2.2,300.0,0.00,15.1,17.6,"21:40:48",1
"23/05/07","22:00",0.0,15.2,98.2,998.6,315.0,1.3,2.4,302.9,0.00,15.0,17.7,"21:54:40",1
"23/05/07","22:10",0.0,15.3,97.7,998.2,258.1,0.5,1.0,290.9,0.00,15.0,17.6,"22:06:50",1
"23/05/07","22:20",0.0,15.1,98.3,998.2,306.6,1.6,1.8,312.4,0.00,14.9,17.7,"22:16:06",1
"23/05/07","22:30",0.0,15.2,97.8,998.2,282.9,1.7,1.9,289.7,0.00,14.9,17.6,"22:21:28",1
"23/05/07","22:40",0.0,15.1,98.3,997.9,305.0,2.5,2.9,299.7,0.00,14.9,17.6,"22:36:56",1
"23/05/07","22:50",0.0,15.2,97.8,997.7,316.7,1.1,1.1,302.6,0.00,14.9,17.8,"22:49:00",1
"23/05/07","23:00",0.0,14.9,98.3,997.7,326.1,1.6,2.2,321.3,0.00,14.7,17.6,"22:54:32",1
"23/05/07","23:10",0.0,14.8,97.9,997.2,290.7,2.1,2.7,307.0,0.00,14.5,17.7,"23:08:50",1
"23/05/07","23:20",0.0,14.6,98.4,996.7,312.4,2.8,3.9,338.2,0.00,14.4,17.5,"23:19:48",1
"23/05/07","23:30",0.0,14.6,98.0,996.5,291.4,2.5,3.3,289.9,0.00,14.3,17.5,"23:20:24",1
"23/05/07","23:40",0.0,14.6,98.0,996.3,319.2,3.6,3.6,319.2,0.00,14.3,17.6,"23:32:24",1
"23/05/07","23:50",0.0,14.6,97.9,996.3,336.2,0.8,1.8,332.4,0.00,14.3,17.7,"23:45:28",1
"23/05/07","24:00",0.0,14.5,98.5,996.3,275.5,0.9,0.9,275.5,0.00,14.3,17.5,"23:57:28",1
